TimeIST,TemperatureF,Dew PointF,Humidity,Sea Level PressureIn,VisibilityMPH,Wind Direction,Wind SpeedMPH,Gust SpeedMPH,PrecipitationIn,Events,Conditions,WindDirDegrees,DateUTC
12:00 AM,51.8,48.2,88,30.06,6.2,SSE,11.5,-,N/A,,Mostly Cloudy,150,2013-05-05 23:00:00
12:30 AM,51.8,48.2,88,30.04,6.2,SE,5.8,-,N/A,,Mostly Cloudy,130,2013-05-05 23:30:00
1:00 AM,52,49,88,30.06,12,SE,8.9,,,,Partly Cloudy,130,2013-05-06 00:00:00
1:00 AM,51.8,50.0,94,30.04,6.2,SE,9.2,-,N/A,,Mostly Cloudy,130,2013-05-06 00:00:00
1:30 AM,51.8,50.0,94,30.04,6.2,SE,9.2,-,N/A,,Mostly Cloudy,140,2013-05-06 00:30:00
2:00 AM,51.8,50.0,94,30.04,6.2,SE,6.9,-,N/A,,Mostly Cloudy,130,2013-05-06 01:00:00
2:30 AM,51.8,50.0,94,30.04,6.2,SE,8.1,-,N/A,Rain,Light Rain,130,2013-05-06 01:30:00
3:00 AM,51.8,50.0,94,30.04,6.2,SE,8.1,-,N/A,Rain,Light Rain,140,2013-05-06 02:00:00
3:30 AM,51.8,48.2,88,30.04,6.2,SE,6.9,-,N/A,Rain,Light Rain,140,2013-05-06 02:30:00
4:00 AM,51.8,48.2,88,30.04,6.2,SE,6.9,-,N/A,,Overcast,130,2013-05-06 03:00:00
4:30 AM,51.8,48.2,88,30.01,6.2,SE,9.2,-,N/A,Rain,Light Rain,130,2013-05-06 03:30:00
5:00 AM,51.8,50.0,94,30.01,6.2,SE,10.4,-,N/A,,Overcast,130,2013-05-06 04:00:00
5:30 AM,50.0,48.2,94,30.01,6.2,SSE,10.4,-,N/A,Rain,Light Rain,150,2013-05-06 04:30:00
6:00 AM,50.0,48.2,94,30.01,6.2,SE,8.1,-,N/A,Rain,Light Rain,140,2013-05-06 05:00:00
6:30 AM,51.8,48.2,88,30.01,6.2,SE,6.9,-,N/A,Rain,Light Rain,130,2013-05-06 05:30:00
7:00 AM,51,48,87,30.03,16,SE,6.7,,,Rain,Light Rain,140,2013-05-06 06:00:00
7:00 AM,51.8,48.2,88,30.01,6.2,SE,6.9,-,N/A,,Mostly Cloudy,140,2013-05-06 06:00:00
7:30 AM,51.8,48.2,88,30.01,6.2,SE,8.1,-,N/A,,Mostly Cloudy,140,2013-05-06 06:30:00
8:00 AM,51.8,48.2,88,30.01,6.2,SE,8.1,-,N/A,,Mostly Cloudy,130,2013-05-06 07:00:00
8:30 AM,53.6,48.2,82,30.01,6.2,SE,10.4,-,N/A,,Mostly Cloudy,140,2013-05-06 07:30:00
9:00 AM,53.6,50.0,88,30.01,6.2,SSE,11.5,-,N/A,,Mostly Cloudy,160,2013-05-06 08:00:00
9:30 AM,55.4,48.2,77,30.01,6.2,SSE,12.7,-,N/A,,Mostly Cloudy,160,2013-05-06 08:30:00
10:00 AM,57.2,50.0,77,30.01,6.2,SSE,12.7,-,N/A,,Mostly Cloudy,150,2013-05-06 09:00:00
10:30 AM,59.0,50.0,72,30.01,6.2,SSE,15.0,-,N/A,,Mostly Cloudy,150,2013-05-06 09:30:00
11:00 AM,59.0,48.2,67,30.01,6.2,SSE,13.8,-,N/A,,Scattered Clouds,150,2013-05-06 10:00:00
11:30 AM,59.0,48.2,67,30.01,6.2,SSE,11.5,-,N/A,,Mostly Cloudy,150,2013-05-06 10:30:00
12:00 PM,59.0,48.2,67,30.01,6.2,SSE,11.5,-,N/A,,Mostly Cloudy,150,2013-05-06 11:00:00
12:30 PM,60.8,48.2,63,30.01,6.2,SSE,12.7,-,N/A,,Scattered Clouds,160,2013-05-06 11:30:00
1:00 PM,61,47,51,30.02,25,SSE,13.4,,,,Mostly Cloudy,160,2013-05-06 12:00:00
1:00 PM,60.8,48.2,63,30.01,6.2,SSE,12.7,-,N/A,,Mostly Cloudy,160,2013-05-06 12:00:00
1:30 PM,60.8,48.2,63,30.01,6.2,SSE,15.0,-,N/A,,Scattered Clouds,160,2013-05-06 12:30:00
2:00 PM,60.8,48.2,63,30.01,6.2,SSE,15.0,-,N/A,,Mostly Cloudy,160,2013-05-06 13:00:00
2:30 PM,62.6,48.2,59,30.01,6.2,SSE,13.8,-,N/A,,Partly Cloudy,150,2013-05-06 13:30:00
3:00 PM,62.6,48.2,59,29.98,6.2,SE,13.8,-,N/A,,Mostly Cloudy,140,2013-05-06 14:00:00
3:30 PM,62.6,48.2,59,29.98,6.2,SE,15.0,-,N/A,,Mostly Cloudy,140,2013-05-06 14:30:00
4:00 PM,62.6,48.2,59,29.98,6.2,SSE,15.0,-,N/A,,Scattered Clouds,150,2013-05-06 15:00:00
4:30 PM,60.8,48.2,63,29.98,6.2,SSE,16.1,-,N/A,,Mostly Cloudy,150,2013-05-06 15:30:00
5:00 PM,62.6,48.2,59,29.98,6.2,SSE,15.0,-,N/A,,Partly Cloudy,150,2013-05-06 16:00:00
5:30 PM,60.8,48.2,63,29.98,6.2,SE,15.0,-,N/A,,Partly Cloudy,140,2013-05-06 16:30:00
6:00 PM,60.8,48.2,63,29.98,6.2,SE,12.7,-,N/A,,Partly Cloudy,140,2013-05-06 17:00:00
6:30 PM,60.8,48.2,63,29.98,6.2,SE,12.7,-,N/A,,Partly Cloudy,140,2013-05-06 17:30:00
7:00 PM,60,48,54,29.98,12,SE,11.2,,,,Scattered Clouds,140,2013-05-06 18:00:00
7:00 PM,60.8,48.2,63,29.98,6.2,SE,11.5,-,N/A,,Partly Cloudy,140,2013-05-06 18:00:00
7:30 PM,59.0,48.2,67,29.95,6.2,SE,11.5,-,N/A,,Partly Cloudy,140,2013-05-06 18:30:00
8:00 PM,59.0,48.2,67,29.95,6.2,SE,10.4,-,N/A,,Partly Cloudy,140,2013-05-06 19:00:00
8:30 PM,57.2,48.2,72,29.98,6.2,SE,12.7,-,N/A,,Partly Cloudy,130,2013-05-06 19:30:00
9:00 PM,53.6,48.2,82,29.98,6.2,SE,9.2,-,N/A,,Partly Cloudy,140,2013-05-06 20:00:00
9:30 PM,53.6,48.2,82,29.98,6.2,SE,9.2,-,N/A,,Mostly Cloudy,140,2013-05-06 20:30:00
10:00 PM,53.6,46.4,77,29.98,6.2,SE,8.1,-,N/A,,Mostly Cloudy,130,2013-05-06 21:00:00
10:30 PM,53.6,46.4,77,29.98,6.2,SSE,11.5,-,N/A,,Overcast,160,2013-05-06 21:30:00
11:00 PM,53.6,46.4,77,29.98,6.2,ESE,6.9,-,N/A,,Mostly Cloudy,110,2013-05-06 22:00:00
11:30 PM,51.8,46.4,82,29.98,6.2,ESE,8.1,-,N/A,,Scattered Clouds,120,2013-05-06 22:30:00